Crane Lake, MN

12:40 AM CST on January 19, 2017 (GMT -0600)
Crane Lake

Weather History for KCDD - November, 2013

Change the Weather History Date:

Thursday, November 14, 2013

  Actual Average Record
Temperature  
Mean Temperature 27 °F -  
Max Temperature 35 °F 33 °F 55 °F (2001)
Min Temperature 19 °F 20 °F -7 °F (1996)
Degree Days  
Heating Degree Days 38    
Moisture  
Dew Point 26 °F    
Average Humidity 91    
Maximum Humidity 100    
Minimum Humidity 81    
Precipitation  
Precipitation 0.00 in - - ()
Sea Level Pressure  
Sea Level Pressure 29.75 in    
Wind  
Wind Speed 0 mph (SSW)    
Max Wind Speed 5 mph    
Max Gust Speed -    
Visibility 10 miles    
Events Snow    
Averages and records for this station are not official NWS values.
T = Trace of Precipitation, MM = Missing Value Source: NWS Daily Summary

Daily Weather History Graph

Daily Weather History Graph

Search for Another Location

Airport or City:

Trip Planner

Search our weather history database for the weather conditions in past years. The results will help you decide how hot, cold, wet, or windy it might be!

Date:

Astronomy

Nov. 14, 2013 Rise Set
Actual Time 7:16 AM CST 4:32 PM CST
Civil Twilight 6:41 AM CST 5:06 PM CST
Nautical Twilight 6:04 AM CST 5:44 PM CST
Astronomical Twilight 5:27 AM CST 6:20 PM CST
Moon 3:04 PM CST (11/14) 3:58 AM CST (11/14)
Length of Visible Light 10h 24m
Length of Day
9h 16m
Waxing Gibbous, 92% of the Moon is Illuminated
Nov 14
Waxing Gibbous
Nov 17
Full
Nov 25
Last Quarter
Dec 2
New
Dec 9
First Quarter

Hourly Weather History & Observations

Time (CST) Temp. Windchill Dew Point Humidity Pressure Visibility Wind Dir Wind Speed Gust Speed Precip Events Conditions
12:10 AM 24.8 °F - 23.0 °F 93% 29.76 in 10.0 mi Calm Calm - N/A   Clear
12:30 AM 24.8 °F - 23.0 °F 93% 29.75 in 10.0 mi Calm Calm - N/A   Clear
12:50 AM 24.8 °F - 23.0 °F 93% 29.74 in 10.0 mi Calm Calm - N/A   Clear
1:10 AM 24.8 °F - 23.0 °F 93% 29.74 in 10.0 mi Calm Calm - N/A   Clear
1:30 AM 24.8 °F - 23.0 °F 93% 29.74 in 10.0 mi Calm Calm - N/A   Clear
1:50 AM 24.8 °F - 21.2 °F 86% 29.75 in 10.0 mi Calm Calm - N/A   Clear
2:10 AM 24.8 °F - 21.2 °F 86% 29.75 in 10.0 mi Calm Calm - N/A   Clear
2:30 AM 24.8 °F - 21.2 °F 86% 29.74 in 10.0 mi Calm Calm - N/A   Clear
2:50 AM 23.0 °F - 21.2 °F 93% 29.74 in 10.0 mi Calm Calm - N/A   Clear
3:10 AM 23.0 °F - 21.2 °F 93% 29.74 in 10.0 mi Calm Calm - N/A   Clear
3:30 AM 21.2 °F - 21.2 °F 100% 29.75 in 10.0 mi Calm Calm - N/A   Clear
3:50 AM 21.2 °F - 21.2 °F 100% 29.76 in 10.0 mi Calm Calm - N/A   Clear
4:10 AM 21.2 °F - 19.4 °F 93% 29.76 in 10.0 mi Calm Calm - N/A   Clear
4:30 AM 21.2 °F - 19.4 °F 93% 29.76 in 10.0 mi Calm Calm - N/A   Clear
4:50 AM 21.2 °F - 19.4 °F 93% 29.76 in 10.0 mi Calm Calm - N/A   Clear
5:10 AM 21.2 °F - 19.4 °F 93% 29.77 in 10.0 mi Calm Calm - N/A   Clear
5:30 AM 21.2 °F - 19.4 °F 93% 29.77 in 10.0 mi Calm Calm - N/A   Clear
5:50 AM 21.2 °F - 19.4 °F 93% 29.76 in 10.0 mi Calm Calm - N/A   Clear
6:10 AM 21.2 °F - 19.4 °F 93% 29.76 in 10.0 mi Calm Calm - N/A   Mostly Cloudy
6:30 AM 21.2 °F - 19.4 °F 93% 29.77 in 10.0 mi Calm Calm - N/A   Overcast
6:50 AM 21.2 °F - 19.4 °F 93% 29.76 in 10.0 mi Calm Calm - N/A   Scattered Clouds
7:10 AM 19.4 °F - 19.4 °F 100% 29.77 in 10.0 mi Calm Calm - N/A   Clear
7:30 AM 19.4 °F - 17.6 °F 93% 29.77 in 10.0 mi Calm Calm - N/A   Scattered Clouds
7:50 AM 21.2 °F - 19.4 °F 93% 29.77 in 10.0 mi Calm Calm - N/A   Overcast
8:10 AM 21.2 °F - 21.2 °F 100% 29.78 in 10.0 mi Calm Calm - N/A   Overcast
8:30 AM 24.8 °F - 21.2 °F 86% 29.79 in 10.0 mi Calm Calm - N/A   Overcast
8:50 AM 26.6 °F - 24.8 °F 93% 29.79 in 10.0 mi Calm Calm - N/A   Mostly Cloudy
9:10 AM 26.6 °F - 26.6 °F 100% 29.79 in 10.0 mi Calm Calm - N/A   Overcast
9:30 AM 28.4 °F - 26.6 °F 93% 29.79 in 10.0 mi Calm Calm - N/A   Overcast
9:50 AM 30.2 °F 26.7 °F 28.4 °F 93% 29.79 in 10.0 mi SSW 3.5 mph - N/A   Overcast
10:10 AM 30.2 °F 26.7 °F 28.4 °F 93% 29.80 in 10.0 mi SW 3.5 mph - N/A   Overcast
10:30 AM 30.2 °F - 30.2 °F 100% 29.80 in 10.0 mi Calm Calm - N/A   Overcast
10:50 AM 33.8 °F - 30.2 °F 87% 29.79 in 10.0 mi Calm Calm - N/A   Overcast
11:10 AM 33.8 °F 30.8 °F 32.0 °F 93% 29.78 in 10.0 mi SW 3.5 mph - N/A   Overcast
11:30 AM 33.8 °F - 32.0 °F 93% 29.77 in 10.0 mi Calm Calm - N/A   Overcast
11:50 AM 35.6 °F - 33.8 °F 93% 29.77 in 10.0 mi Calm Calm - N/A   Overcast
12:10 PM 33.8 °F - 30.2 °F 87% 29.76 in 7.0 mi Calm Calm - N/A Snow Light Snow
12:30 PM 33.8 °F - 30.2 °F 87% 29.76 in 4.0 mi Calm Calm - N/A Snow Light Snow
12:50 PM 33.8 °F - 32.0 °F 93% 29.76 in 10.0 mi Calm Calm - N/A Snow Light Snow
1:10 PM 35.6 °F - 30.2 °F 81% 29.75 in 10.0 mi Calm Calm - N/A   Mostly Cloudy
1:30 PM 35.6 °F - 30.2 °F 81% 29.75 in 10.0 mi Calm Calm - N/A   Overcast
1:50 PM 33.8 °F 30.8 °F 30.2 °F 87% 29.75 in 10.0 mi SSW 3.5 mph - N/A   Overcast
2:10 PM 33.8 °F - 30.2 °F 87% 29.74 in 10.0 mi Calm Calm - N/A   Overcast
2:30 PM 35.6 °F - 30.2 °F 81% 29.74 in 10.0 mi Calm Calm - N/A   Overcast
2:50 PM 35.6 °F - 30.2 °F 81% 29.74 in 10.0 mi Calm Calm - N/A   Overcast
3:10 PM 33.8 °F - 30.2 °F 87% 29.74 in 10.0 mi Calm Calm - N/A   Overcast
3:30 PM 33.8 °F - 30.2 °F 87% 29.74 in 10.0 mi Calm Calm - N/A   Overcast
3:50 PM 33.8 °F - 30.2 °F 87% 29.74 in 10.0 mi Calm Calm - N/A   Overcast
4:10 PM 33.8 °F - 28.4 °F 81% 29.74 in 10.0 mi Calm Calm - N/A   Overcast
4:30 PM 33.8 °F - 28.4 °F 81% 29.74 in 10.0 mi Calm Calm - N/A   Overcast
4:50 PM 33.8 °F - 28.4 °F 81% 29.74 in 10.0 mi Calm Calm - N/A   Overcast
5:10 PM 32.0 °F - 28.4 °F 87% 29.74 in 10.0 mi Calm Calm - N/A   Overcast
5:30 PM 32.0 °F - 28.4 °F 87% 29.74 in 10.0 mi Calm Calm - N/A   Overcast
5:50 PM 32.0 °F - 28.4 °F 87% 29.74 in 10.0 mi Calm Calm - N/A   Overcast
6:10 PM 30.2 °F - 28.4 °F 93% 29.74 in 10.0 mi Calm Calm - N/A   Overcast
6:30 PM 30.2 °F - 28.4 °F 93% 29.74 in 10.0 mi Calm Calm - N/A   Overcast
6:50 PM 30.2 °F - 28.4 °F 93% 29.75 in 10.0 mi Calm Calm - N/A   Overcast
7:10 PM 32.0 °F - 28.4 °F 87% 29.74 in 10.0 mi Calm Calm - N/A   Overcast
7:30 PM 32.0 °F - 28.4 °F 87% 29.74 in 10.0 mi Calm Calm - N/A Snow Light Snow
7:50 PM 30.2 °F - 28.4 °F 93% 29.74 in 10.0 mi Calm Calm - N/A   Overcast
8:10 PM 30.2 °F - 28.4 °F 93% 29.74 in 10.0 mi Calm Calm - N/A   Overcast
8:30 PM 30.2 °F - 28.4 °F 93% 29.74 in 10.0 mi Calm Calm - N/A   Overcast
8:50 PM 30.2 °F - 28.4 °F 93% 29.73 in 10.0 mi Calm Calm - N/A   Overcast
9:10 PM 30.2 °F - 28.4 °F 93% 29.73 in 10.0 mi Calm Calm - N/A   Overcast
9:30 PM 30.2 °F - 28.4 °F 93% 29.73 in 10.0 mi Calm Calm - N/A   Overcast
9:50 PM 32.0 °F - 28.4 °F 87% 29.72 in 10.0 mi Calm Calm - N/A   Overcast
10:10 PM 32.0 °F 28.7 °F 30.2 °F 93% 29.71 in 10.0 mi South 3.5 mph - N/A   Overcast
10:30 PM 33.8 °F 30.8 °F 30.2 °F 87% 29.71 in 10.0 mi South 3.5 mph - N/A   Overcast
10:50 PM 33.8 °F 29.6 °F 30.2 °F 87% 29.71 in 7.0 mi South 4.6 mph - N/A Snow Light Snow
11:10 PM 33.8 °F 30.8 °F 30.2 °F 87% 29.70 in 10.0 mi South 3.5 mph - N/A   Overcast
11:30 PM 33.8 °F 30.8 °F 30.2 °F 87% 29.71 in 4.0 mi South 3.5 mph - N/A   Overcast
11:50 PM 32.0 °F 27.5 °F 30.2 °F 93% 29.71 in 7.0 mi South 4.6 mph - N/A   Light Drizzle